Back to catalog

STARLINK-3272

AliveCommunicationsVLEO
NORAD 50187·PAYLOAD·🇺🇸 United States

Launched Dec 18, 2021 from Vandenberg Space Force Base

Loading…

Next Passes (next 24 hours)

TLE

FreshSource: CelesTrak SupGP

Epoch: Sep 14, 2026, 13:25 UTC

1 50187C 21125AH  26257.55951389  .00037997  00000+0  20292-2 0  2577
2 50187  53.2136 107.5105 0002710 120.5323 338.2820 15.14593120    16

Track STARLINK-3272 in real time with AllMySat

Download on the App Store